Location: Azul
(36.7830°S, 59.8500°W)
Time: 21:12:17
(UTC-03:00)

RS-44 - Pass Details

Date: 19 September 2024
Orbit: 1174 x 1511 km, 82.5° (Epoch: 11 October)

Event Time Altitude Azimuth Distance (km) Brightness Sun altitude
Rises 04:18:07 0° 196° (SSW) 4,436 ? -30.9°
Reaches altitude 10° 04:21:04 10° 203° (SSW) 3,502 ? -30.4°
Enters shadow 04:25:57 32° 231° (SW) 2,275 ? -29.5°
